Find GSAT-31

NORAD ID: 44035 Int'l Des: 2019-007 Owner: ISRO Country: IN operational
HEOCIRCULARGSO

当前视图

正在加载3D地球...

关于 GSAT-31

正在加载描述...

即将过境

Passes for default location (London). Set your location on the main map for personalized predictions.

高度历史

Loading altitude history...

两行轨道根数

1 44035U 19007B 26146.24142096 .00000127 00000-0 00000-0 0 9990
2 44035 0.0527 104.0256 0001624 253.0243 21.5886 1.00272059 26747
Epoch: May 26, 2026 • Age: 10 hours

当前状态

高度 35792.6 km
速度 3.07 km/s
星下点 0.03°N, 47.91°E
发射日期 Feb 5, 2019
运行时间 7.3 years
类型 other

技术详情

分类 Payload
质量 2536.00 kg
干质量 1500.00 kg
总质量 2536.00 kg
长度 3.00 m
直径 2.00 m
跨度 10.00 m
形状 Box + 2 pan
制造商 ISAC
平台类型 I2K
阶段状态 In Orbit
所有者/国家 ISRO/IN

Most Searched